Palm Beach International Airport West Palm Beach US
ICAO: KPBI
IATA: PBI
Category: Large
Scheduled Services: Yes

Elevation: 19 ft
TransAlt. 18000 ft.

Airport Communications:
APP:124.6
ASOS:119.975
ATIS:123.75
CLNC DEL:121.6
DEP:127.35
GND:121.9
MIAMI RDO:122.4
TWR:119.1
UNICOM:122.95

KPBI Zoom In..

Runways:

(A) RW 10L length 10000 ft width 150 ft
ILS 111.90 / hdg 99

(B) RW 10R length 3213 ft width 75 ft
---- / hdg 99

(C) RW 14 length 6931 ft width 150 ft
---- / hdg 141

(D) RW 28L length 3213 ft width 75 ft
---- / hdg 279

(E) RW 28R length 10000 ft width 150 ft
ILS 111.90 / hdg 279

(F) RW 32 length 6931 ft width 150 ft
---- / hdg 321

Location; KPBI
Day. 14 / Time. 01.53 Zulu
* Altimeter: 29.99
* Temperature: 30° c. 86°f.
* Wind from: 220° Speed 08 kn.
Dewpoint: 22° c.
Visibility: 10 Statute Miles.
Clouds: Few 5500 ft.
Clouds: Few 25000 ft.

KPBI 140153Z 22008KT 10SM FEW055 FEW250 30/22 A2999 RMK AO2 SLP155 T03000222

Going to: --> -->


Wind From 220°
Speed 08 kn.

 
 
jpsmedia worldairports.se 2020   terms of use